Date String (YYYY-MM-DD hh:mm:ss) UTC,Instrument flags,absolute air pressure of the measurement (hPa),sample flow rate (lpm),inlet stack bypass flow (lpm),air temperature of the measurement (°C),ambient temperature measured by the external sensor (°C),aerosol sample conditioner tube jacket temperature (°C),OPC LED temperature (°C),internal box temperature (°C),relative humidity of the measurement (%),span deviation,mass concentration of particles derived from Lorenz-Mie calculation of OPC scattering (μg/m³),mass concentration of particles derived from Lorenz-Mie calculation of OPC scattering (μg/m³),mass concentration of particles derived from Lorenz-Mie calculation of OPC scattering (μg/m³)
DateTimeUTC,F1_M11,P_M11,Q1_M11,Q2_M11,T1_M11,T2_M11,T3_M11,T4_M11,T5_M11,U1_M11,ZSPAN_M11,X0_M11,X2_M11,X1_M11
2023-12-28 22:00:00,SystemResetWarning,0833.4,4.99,000.00,023.9,023.2,000.0,032.0,025.2,6.3,0000.0,0004.07,0000.83,0000.61
2023-12-28 22:01:00,SystemResetWarning,0833.5,4.99,000.00,023.9,023.2,000.0,032.0,025.2,6.4,0000.0,0004.09,0000.83,0000.60
2023-12-28 22:02:00,SystemResetWarning,0833.5,5.00,000.00,023.9,023.2,000.0,032.0,025.2,6.4,0000.0,0004.12,0000.83,0000.59
2023-12-28 22:03:00,SystemResetWarning,0833.5,5.02,000.00,023.9,023.2,000.0,032.0,025.2,6.4,0000.0,0004.10,0000.82,0000.59
2023-12-28 22:04:00,SystemResetWarning,0833.5,4.99,000.00,023.9,023.2,000.0,032.1,025.1,6.4,0000.0,0004.07,0000.82,0000.58
2023-12-28 22:05:00,SystemResetWarning,0833.6,4.99,000.00,023.9,023.2,000.0,032.1,025.1,6.4,0000.0,0004.09,0000.83,0000.58
2023-12-28 22:06:00,SystemResetWarning,0833.6,5.00,000.00,023.9,023.2,000.0,032.1,025.2,6.4,0000.0,0004.41,0000.84,0000.58
2023-12-28 22:07:00,SystemResetWarning,0833.6,5.01,000.00,023.9,023.2,000.0,032.1,025.2,6.2,0000.0,0005.24,0000.89,0000.60
2023-12-28 22:08:00,SystemResetWarning,0833.6,5.00,000.00,023.9,023.2,000.0,032.1,025.2,6.2,0000.0,0004.85,0000.94,0000.61
2023-12-28 22:09:00,SystemResetWarning,0833.6,4.99,000.00,023.9,023.2,000.0,032.1,025.2,6.2,0000.0,0004.94,0000.96,0000.62
2023-12-28 22:10:00,SystemResetWarning,0833.6,4.99,000.00,024.0,023.2,000.0,032.1,025.2,6.3,0000.0,0004.23,0000.94,0000.61
2023-12-28 22:11:00,SystemResetWarning,0833.6,5.00,000.00,024.0,023.3,000.0,032.1,025.3,6.3,0000.0,0004.51,0000.94,0000.61
2023-12-28 22:12:00,SystemResetWarning,0833.6,5.01,000.00,024.0,023.3,000.0,032.1,025.3,6.4,0000.0,0004.57,0000.94,0000.61
2023-12-28 22:13:00,SystemResetWarning,0833.6,4.99,000.00,024.0,023.3,000.0,032.1,025.3,6.5,0000.0,0004.82,0000.98,0000.61
2023-12-28 22:14:00,SystemResetWarning,0833.6,4.98,000.00,024.0,023.3,000.0,032.2,025.3,6.5,0000.0,0004.99,0001.03,0000.62
2023-12-28 22:15:00,SystemResetWarning,0833.6,5.00,000.00,024.0,023.3,000.0,032.2,025.3,6.4,0000.0,0005.09,0001.05,0000.64
2023-12-28 22:16:00,SystemResetWarning,0833.6,5.01,000.00,024.1,023.3,000.0,032.2,025.4,6.4,0000.0,0006.83,0001.07,0000.66
2023-12-28 22:17:00,SystemResetWarning,0833.6,4.99,000.00,024.1,023.3,000.0,032.2,025.3,6.3,0000.0,0006.77,0001.10,0000.65
2023-12-28 22:18:00,SystemResetWarning,0833.6,4.99,000.00,024.1,023.3,000.0,032.2,025.3,6.3,0000.0,0006.01,0001.05,0000.64
2023-12-28 22:19:00,SystemResetWarning,0833.6,5.00,000.00,024.1,023.3,000.0,032.2,025.3,6.3,0000.0,0005.94,0001.05,0000.64
2023-12-28 22:20:00,SystemResetWarning,0833.6,5.01,000.00,024.1,023.3,000.0,032.2,025.4,6.2,0000.0,0005.64,0001.03,0000.63
2023-12-28 22:21:00,SystemResetWarning,0833.6,5.00,000.00,024.1,023.3,000.0,032.2,025.4,6.2,0000.0,0007.36,0001.03,0000.63
2023-12-28 22:22:00,SystemResetWarning,0833.6,4.99,000.00,024.1,023.4,000.0,032.2,025.4,6.4,0000.0,0007.10,0001.02,0000.63
2023-12-28 22:23:00,SystemResetWarning,0833.6,5.00,000.00,024.1,023.4,000.0,032.2,025.4,6.5,0000.0,0007.23,0001.04,0000.64
2023-12-28 22:24:00,SystemResetWarning,0833.7,5.02,000.00,024.1,023.4,000.0,032.3,025.4,6.3,0000.0,0007.42,0001.01,0000.63
2023-12-28 22:25:00,SystemResetWarning,0833.7,4.99,000.00,024.1,023.4,000.0,032.3,025.4,6.4,0000.0,0007.89,0001.02,0000.63
2023-12-28 22:26:00,SystemResetWarning,0833.7,4.99,000.00,024.1,023.4,000.0,032.3,025.4,6.4,0000.0,0008.30,0001.00,0000.61
2023-12-28 22:27:00,SystemResetWarning,0833.7,5.01,000.00,024.2,023.4,000.0,032.3,025.4,6.3,0000.0,0007.37,0000.98,0000.60
2023-12-28 22:28:00,SystemResetWarning,0833.7,5.00,000.00,024.2,023.4,000.0,032.3,025.4,6.3,0000.0,0007.33,0000.98,0000.60
2023-12-28 22:29:00,SystemResetWarning,0833.7,5.00,000.00,024.2,023.4,000.0,032.3,025.4,6.2,0000.0,0007.36,0000.98,0000.59
2023-12-28 22:30:00,SystemResetWarning,0833.7,5.00,000.00,024.2,023.4,000.0,032.3,025.4,6.3,0000.0,0006.21,0000.92,0000.59
2023-12-28 22:31:00,SystemResetWarning,0833.6,5.00,000.00,024.2,023.4,000.0,032.3,025.4,6.2,0000.0,0006.72,0000.94,0000.59
2023-12-28 22:32:00,SystemResetWarning,0833.7,5.00,000.00,024.2,023.4,000.0,032.3,025.4,6.3,0000.0,0005.21,0000.98,0000.59
2023-12-28 22:33:00,SystemResetWarning,0833.7,5.00,000.00,024.2,023.4,000.0,032.3,025.4,6.4,0000.0,0005.26,0001.03,0000.58
2023-12-28 22:34:00,SystemResetWarning,0833.7,5.01,000.00,024.2,023.4,000.0,032.3,025.4,6.4,0000.0,0005.33,0001.04,0000.58
2023-12-28 22:35:00,SystemResetWarning,0833.7,5.00,000.00,024.2,023.4,000.0,032.3,025.4,6.3,0000.0,0004.87,0001.05,0000.58
2023-12-28 22:36:00,SystemResetWarning,0833.7,5.01,000.00,024.2,023.4,000.0,032.4,025.4,6.3,0000.0,0003.89,0001.01,0000.59
2023-12-28 22:37:00,SystemResetWarning,0833.7,5.01,000.00,024.2,023.3,000.0,032.4,025.4,6.3,0000.0,0003.02,0001.01,0000.60
2023-12-28 22:38:00,SystemResetWarning,0833.7,5.00,000.00,024.2,023.3,000.0,032.4,025.4,6.4,0000.0,0003.95,0001.00,0000.60
2023-12-28 22:39:00,SystemResetWarning,0833.7,4.99,000.00,024.2,023.4,000.0,032.4,025.4,6.3,0000.0,0003.98,0000.99,0000.60
2023-12-28 22:40:00,SystemResetWarning,0833.7,5.01,000.00,024.2,023.4,000.0,032.4,025.4,6.3,0000.0,0005.01,0001.01,0000.61
2023-12-28 22:41:00,SystemResetWarning,0833.7,5.00,000.00,024.2,023.4,000.0,032.4,025.4,6.3,0000.0,0005.61,0001.05,0000.62
2023-12-28 22:42:00,SystemResetWarning,0833.8,5.01,000.00,024.2,023.4,000.0,032.4,025.4,6.3,0000.0,0005.29,0001.08,0000.63
2023-12-28 22:43:00,SystemResetWarning,0833.8,5.00,000.00,024.2,023.4,000.0,032.4,025.4,6.4,0000.0,0005.28,0001.12,0000.64
2023-12-28 22:44:00,SystemResetWarning,0833.8,4.99,000.00,024.2,023.4,000.0,032.4,025.4,6.4,0000.0,0006.19,0001.12,0000.66
2023-12-28 22:45:00,SystemResetWarning,0833.7,5.00,000.00,024.2,023.4,000.0,032.4,025.4,6.3,0000.0,0006.69,0001.12,0000.68
2023-12-28 22:46:00,SystemResetWarning,0833.8,4.99,000.00,024.2,023.4,000.0,032.4,025.4,6.4,0000.0,0008.03,0001.15,0000.69
2023-12-28 22:47:00,SystemResetWarning,0833.7,5.00,000.00,024.2,023.4,000.0,032.4,025.4,6.5,0000.0,0008.49,0001.18,0000.69
2023-12-28 22:48:00,SystemResetWarning,0833.8,5.00,000.00,024.2,023.4,000.0,032.4,025.4,6.5,0000.0,0008.94,0001.21,0000.69
2023-12-28 22:49:00,SystemResetWarning,0833.8,5.00,000.00,024.2,023.4,000.0,032.4,025.5,6.5,0000.0,0008.59,0001.25,0000.70
2023-12-28 22:50:00,SystemResetWarning,0833.7,5.00,000.00,024.2,023.4,000.0,032.4,025.5,6.4,0000.0,0008.59,0001.24,0000.71
2023-12-28 22:51:00,SystemResetWarning,0833.8,5.00,000.00,024.2,023.4,000.0,032.4,025.5,6.5,0000.0,0008.29,0001.26,0000.72
2023-12-28 22:52:00,SystemResetWarning,0833.8,5.01,000.00,024.2,023.4,000.0,032.4,025.5,6.5,0000.0,0007.87,0001.25,0000.73
2023-12-28 22:53:00,SystemResetWarning,0833.8,5.00,000.00,024.3,023.5,000.0,032.4,025.5,6.6,0000.0,0007.87,0001.23,0000.74
2023-12-28 22:54:00,SystemResetWarning,0833.8,4.99,000.00,024.3,023.5,000.0,032.4,025.5,6.5,0000.0,0008.57,0001.20,0000.76
2023-12-28 22:55:00,SystemResetWarning,0833.8,4.99,000.00,024.3,023.5,000.0,032.5,025.5,6.6,0000.0,0009.08,0001.26,0000.77
2023-12-28 22:56:00,SystemResetWarning,0833.7,5.00,000.00,024.3,023.5,000.0,032.5,025.5,6.7,0000.0,0008.76,0001.28,0000.77
2023-12-28 22:57:00,SystemResetWarning,0833.8,5.01,000.00,024.3,023.5,000.0,032.5,025.5,6.8,0000.0,0008.09,0001.26,0000.78
2023-12-28 22:58:00,SystemResetWarning,0833.8,5.00,000.00,024.3,023.5,000.0,032.5,025.5,6.7,0000.0,0007.39,0001.24,0000.81
2023-12-28 22:59:00,SystemResetWarning,0833.8,5.01,000.00,024.3,023.5,000.0,032.5,025.5,6.7,0000.0,0006.99,0001.25,0000.83
